Location: Bad Dürkheim
(49.4618°N, 8.1724°E)
Time: 05:04:02
(UTC+00:00)

ARIANE 5 R/B - Pass Details

Date: 14 June 2025
Orbit: 615 x 647 km, 98.0° (Epoch: 10 July)

Event Time Altitude Azimuth Distance (km) Brightness Sun altitude
Exits shadow 22:20:50 28° 164° (SSE) 1,201 3.4 -15.7°
Maximum altitude 22:23:10 89° 99° (E) 649 2.6 -15.8°
Drops below altitude 10° 22:27:40 10° 346° (NNW) 2,053 6.6 -16.0°
Sets 22:29:53 0° 347° (NNW) 2,971 7.9 -16.1°
